Regional Weather Roundup
Issued by NWS Sterling, VA

Home | Current Version | Previous Version | Graphics & Text | Print | Product List | Glossary On
Versions: 1 2 3 4 5 6 7 8 9 10 11 12 13 14 15 16 17 18 19 20 21 22 23 24 25 26 27
000
ASUS41 KLWX 250610
RWRLWX

REGIONAL WEATHER ROUNDUP
NATIONAL WEATHER SERVICE BALTIMORE MD/WASHINGTON DC
200 AM EDT MON JUL 25 2016

Note: "FAIR" indicates few or no clouds below 12,000 feet
with no significant weather and/or obstructions to visibility.
 TC=TEMPERATURE CELSIUS

 * =Non NWS site. Station does not report precipitation (e.g. rain,
    snow, etc.), thunder, or fog.

DCZ001-MDZ009-015-VAZ040>042-051-053>054-250700-
WASHINGTON METRO

CITY           SKY/WX    TMP DP  RH WIND       PRES   REMARKS
WASHINGTON NAT MOCLDY    84  77  79 SE3       29.96F HX  94
DULLES         MOCLDY    81  72  74 N6        29.96F
ANDREWS AFB    CLOUDY    80  75  86 E6        29.96R
QUANTICO       MOCLDY    85  76  74 CALM      29.95F HX  94
COLLEGE PARK*  FAIR      77  73  88 CALM      29.96R
LEESBURG*      FAIR      79  73  83 CALM      29.97F
MANASSAS*      FAIR      79  73  83 N6        29.95S
GAITHERSBURG*  CLOUDY    75  70  83 CALM      30.01S

$$

MDZ006>007-011-014-250700-
BALTIMORE METRO

CITY           SKY/WX    TMP DP  RH WIND       PRES   REMARKS
BWI AIRPORT    CLOUDY    80  74  81 CALM      29.95F
MD SCIENCE CTR   N/A     85  74  69 MISG      29.95F HX  92
MARTIN STATE   CLOUDY    81  77  89 CALM      29.97S
ANNAPOLIS      CLOUDY    80  70  71 S5        29.95S
FORT MEADE*    CLOUDY    73  72  94 CALM      29.98F

$$

MDZ012-015-019>023-250700-
MARYLAND EASTERN SHORE

CITY           SKY/WX    TMP DP  RH WIND       PRES   REMARKS
OCEAN CITY     MOCLDY   N/A N/A N/A S3        29.97S
SALISBURY      CLOUDY    78  76  93 CALM      29.96F FOG
BAY BRIDGE AP* CLOUDY    82  70  65 S7        29.96F
CAMBRIDGE*     CLOUDY    79  77  94 S3        29.96R
EASTON*        LGT RAIN  81  78  91 N5        30.01R

$$

MDZ017>025-250700-
SOUTHERN MARYLAND

CITY           SKY/WX    TMP DP  RH WIND       PRES   REMARKS
PATUXENT RIVER PTCLDY    84  77  79 SW8       29.96S HX  94
ST INIGOES     PTCLDY    85  78  80 S5        29.95S HX  96
LEONARDTOWN*   PTCLDY    82  75  78 S5        29.98R

$$

MDZ003>005-250700-
NORTH CENTRAL MARYLAND

CITY           SKY/WX    TMP DP  RH WIND       PRES   REMARKS
FREDERICK*     RAIN      77  73  88 CALM      29.99F
HAGERSTOWN APT CLOUDY    78  71  79 CALM      29.98F

$$

MDZ501>502-250700-
WESTERN MARYLAND

CITY           SKY/WX    TMP DP  RH WIND       PRES   REMARKS
OAKLAND*       CLEAR     70  64  83 SW3       30.13S
CUMBERLAND*    CLEAR     73  73 100 CALM      30.04F

$$

VAZ025>031-250700-
SHENANDOAH VALLEY

CITY           SKY/WX    TMP DP  RH WIND       PRES   REMARKS
WINCHESTER*    FAIR      73  72  94 NW3       29.98F
FRONT ROYAL*   FAIR      73  72  94 CALM      29.99F
LURAY*         FAIR      73  73 100 CALM      30.00F
NEW MARKET*    FAIR     N/A N/A N/A CALM      30.00F
STAUNTON*      FAIR      72  70  95 CALM      30.05F
WAYNESBORO*    FAIR      74  71  91 SW3       30.05F

$$

WVZ021-048>050-054>055-250700-
EASTERN WEST VIRGINIA PANHANDLE

CITY           SKY/WX    TMP DP  RH WIND       PRES   REMARKS
MARTINSBURG    FAIR      74  71  91 CALM      29.97F
PETERSBURG*    FAIR      75  72  89 NW3       30.01F

$$

VAZ036>039-050-250700-
CENTRAL FOOTHILLS

CITY           SKY/WX    TMP DP  RH WIND       PRES   REMARKS
CHARLOTTESVILL FAIR      80  73  79 CALM      29.99F
CULPEPER*      FAIR      77  76  97 CALM      29.96F
ORANGE*          N/A     77  77 100 CALM      29.99F
GORDONSVILLE*  FAIR      76  76  98 CALM      29.97F
WARRENTON*     FAIR      76  71  82 S3        29.95F

$$

VAZ055>057-250700-
NORTH AND CENTRAL PIEDMONT

CITY           SKY/WX    TMP DP  RH WIND       PRES   REMARKS
FREDERICKSBRG* FAIR      82  78  85 SW5       29.94F HX  91
STAFFORD*      FAIR      77  75  92 CALM      29.99F

$$

NCZ024-NYZ072-PAZ021-071-VAZ022-071-250700-
OTHER REGIONAL OBSERVATIONS

CITY           SKY/WX    TMP DP  RH WIND       PRES   REMARKS
NEW YORK CITY  CLOUDY    81  66  60 VRB6      29.98F
PHILADELPHIA   CLOUDY    82  68  62 S5        29.96F
PITTSBURGH     PTCLDY    72  70  93 CALM      30.00F
ROANOKE        FAIR      77  70  79 CALM      30.06F
RICHMOND       MOCLDY    81  74  79 SW7       29.97F
RALEIGH        PTCLDY    81  75  82 SW9       30.03F

$$

ANZ530>537-250700-
MARINE OBSERVATIONS

STATION/POSITION TIME  TEMP    WIND        PRES
                       AIR SEA DIR/SP/G
                 (UTC) (F)     (DEG/KT/KT) (MB)
THOMAS PT LIGHT  0600   85 83  190/ 16/ 17 1015.6F
BALT KEY BRIDGE  0548          320/  2/  2 1014.2F
COVE POINT       0548          210/  8/ 11 1015.1R
LEWISETTA        0548          230/  6/  7 1014.2S
SOLOMONS ISLAND  0548          210/  7/ 10   N/A
PINEY POINT      0548          240/  7/  9   N/A

$$





USA.gov is the U.S. government's official web portal to all federal, state and local government web resources and services.